| time (UTC) | temp F | wind direction | speed knots | gust knots | rain 1hr in | rain 24hr in | rain mn in | humidity % | barometer mb |
| 20260506102524 | 59 | 118 | 4.3 | 7.0 | 0.00 | 0.00 | 0.00 | 52 | 1011.2 |
| 20260506101525 | 59 | 71 | 4.3 | 12.2 | 0.00 | 0.00 | 0.00 | 51 | 1011.3 |
| 20260506100525 | 58 | 147 | 3.5 | 6.1 | 0.00 | 0.00 | 0.00 | 53 | 1011.1 |
| 20260506095516 | 58 | 127 | 3.5 | 5.2 | 0.00 | 0.00 | 0.00 | 53 | 1011.0 |
| 20260506094528 | 58 | 96 | 3.5 | 7.8 | 0.00 | 0.00 | 0.00 | 52 | 1010.9 |
| 20260506093527 | 58 | 64 | 2.6 | 7.8 | 0.00 | 0.00 | 0.00 | 53 | 1010.8 |
| 20260506092601 | 58 | 68 | 2.6 | 3.5 | 0.00 | 0.00 | 0.00 | 54 | 1010.7 |
| 20260506091519 | 58 | 72 | 3.5 | 7.0 | 0.00 | 0.00 | 0.00 | 53 | 1010.7 |
| 20260506090519 | 57 | 34 | 4.3 | 9.6 | 0.00 | 0.00 | 0.00 | 54 | 1010.7 |
| 20260506085521 | 57 | 79 | 5.2 | 9.6 | 0.00 | 0.00 | 0.00 | 54 | 1010.7 |
| 20260506084519 | 57 | 107 | 4.3 | 6.1 | 0.00 | 0.00 | 0.00 | 55 | 1010.6 |
| 20260506083519 | 57 | 143 | 5.2 | 11.3 | 0.00 | 0.00 | 0.00 | 56 | 1010.6 |
| 20260506082541 | 57 | 63 | 3.5 | 7.0 | 0.00 | 0.00 | 0.00 | 57 | 1010.6 |
| 20260506081520 | 57 | 108 | 2.6 | 5.2 | 0.00 | 0.00 | 0.00 | 59 | 1010.7 |
| 20260506080523 | 57 | 80 | 3.5 | 9.6 | 0.00 | 0.00 | 0.00 | 62 | 1010.6 |
| 20260506072520 | 55 | 76 | 4.3 | 6.1 | 0.00 | 0.00 | 0.00 | 67 | 1010.6 |
| 20260506071521 | 55 | 11 | 2.6 | 7.8 | 0.00 | 0.00 | 0.00 | 68 | 1010.5 |
| 20260506070524 | 54 | 77 | 2.6 | 6.1 | 0.00 | 0.00 | 0.00 | 68 | 1010.4 |
| 20260506061518 | 53 | 268 | 2.6 | 3.5 | 0.00 | 0.00 | 0.00 | 71 | 1010.0 |
| 20260506060521 | 52 | 25 | 2.6 | 7.0 | 0.00 | 0.00 | 0.00 | 71 | 1009.9 |
| 20260506050516 | 51 | 49 | 1.7 | 4.3 | 0.00 | 0.00 | 0.00 | 74 | 1010.3 |
| 20260506044527 | 50 | 351 | 1.7 | 4.3 | 0.00 | 0.00 | 0.00 | 74 | 1010.3 |
| 20260506043526 | 50 | 24 | 1.7 | 4.3 | 0.00 | 0.00 | 0.00 | 74 | 1010.2 |
| 20260506042516 | 50 | 76 | 1.7 | 3.5 | 0.00 | 0.00 | 0.00 | 74 | 1010.4 |
| 20260506041517 | 50 | 110 | 1.7 | 4.3 | 0.00 | 0.00 | 0.00 | 73 | 1010.5 |
| 20260506040517 | 50 | 357 | 1.7 | 5.2 | 0.00 | 0.00 | 0.00 | 73 | 1010.5 |
| 20260506035520 | 50 | 24 | 1.7 | 3.5 | 0.00 | 0.00 | 0.00 | 73 | 1010.5 |
| 20260506034542 | 50 | 73 | 0.9 | 4.3 | 0.00 | 0.00 | 0.00 | 73 | 1010.5 |
| 20260506033522 | 50 | 172 | 0.9 | 3.5 | 0.00 | 0.00 | 0.00 | 73 | 1010.5 |
| 20260506032524 | 50 | 86 | 0.9 | 2.6 | 0.00 | 0.00 | 0.00 | 72 | 1010.6 |
| 20260506031526 | 50 | 95 | 0.9 | 1.7 | 0.00 | 0.00 | 0.00 | 72 | 1010.7 |
| 20260506030537 | 50 | 55 | 1.7 | 4.3 | 0.00 | 0.00 | 0.00 | 73 | 1010.7 |
| 20260506025518 | 50 | 80 | 1.7 | 6.1 | 0.00 | 0.00 | 0.00 | 73 | 1010.7 |
| 20260506024530 | 49 | 39 | 1.7 | 3.5 | 0.00 | 0.00 | 0.00 | 73 | 1010.9 |
| 20260506023542 | 49 | 254 | 0.9 | 3.5 | 0.00 | 0.00 | 0.00 | 73 | 1011.0 |
| 20260506022525 | 49 | 32 | 1.7 | 2.6 | 0.00 | 0.00 | 0.00 | 73 | 1011.0 |
| 20260506021516 | 49 | 22 | 0.9 | 2.6 | 0.00 | 0.00 | 0.00 | 73 | 1011.0 |
| 20260506020558 | 49 | 106 | 0.9 | 2.6 | 0.00 | 0.00 | 0.00 | 73 | 1011.1 |
| 20260506015529 | 49 | 29 | 0.9 | 3.5 | 0.00 | 0.00 | 0.00 | 73 | 1011.2 |
| 20260506014517 | 49 | 320 | 1.7 | 2.6 | 0.00 | 0.00 | 0.00 | 73 | 1011.2 |
| 20260506013517 | 49 | 9 | 1.7 | 4.3 | 0.00 | 0.00 | 0.00 | 73 | 1011.2 |
| 20260506012518 | 49 | 22 | 0.9 | 3.5 | 0.00 | 0.00 | 0.00 | 73 | 1011.3 |
| 20260506011520 | 48 | 100 | 0.9 | 1.7 | 0.00 | 0.00 | 0.00 | 73 | 1011.4 |
| 20260506010515 | 48 | 29 | 0.9 | 3.5 | 0.00 | 0.00 | 0.00 | 73 | 1011.6 |
| 20260506005517 | 48 | 21 | 0.9 | 2.6 | 0.00 | 0.00 | 0.00 | 73 | 1011.7 |
| 20260506004519 | 48 | 121 | 0.9 | 3.5 | 0.00 | 0.00 | 0.00 | 73 | 1011.9 |
| 20260506003542 | 48 | 158 | 1.7 | 5.2 | 0.00 | 0.00 | 0.00 | 72 | 1012.0 |
| 20260506002525 | 48 | 83 | 0.9 | 2.6 | 0.00 | 0.00 | 0.00 | 72 | 1012.0 |
| 20260506001526 | 48 | 192 | 0.9 | 3.5 | 0.00 | 0.00 | 0.00 | 71 | 1012.0 |
| 20260506000525 | 48 | 69 | 1.7 | 2.6 | 0.00 | 0.00 | 0.00 | 70 | 1012.0 |
| 20260505235525 | 48 | 29 | 0.9 | 1.7 | 0.00 | 0.00 | 0.00 | 70 | 1012.1 |
| 20260505234517 | 48 | 109 | 1.7 | 4.3 | 0.00 | 0.00 | 0.00 | 70 | 1012.3 |
| 20260505233518 | 47 | 33 | 0.9 | 2.6 | 0.00 | 0.00 | 0.00 | 69 | 1012.5 |
| 20260505232521 | 48 | 68 | 1.7 | 4.3 | 0.00 | 0.00 | 0.00 | 69 | 1012.6 |
| 20260505231520 | 48 | 360 | 0.9 | 4.3 | 0.00 | 0.00 | 0.00 | 68 | 1012.7 |
| 20260505230542 | 48 | 142 | 0.9 | 1.7 | 0.00 | 0.00 | 0.00 | 68 | 1012.7 |
| 20260505225523 | 48 | 332 | 0.9 | 4.3 | 0.00 | 0.00 | 0.00 | 67 | 1012.7 |
| 20260505224524 | 48 | 102 | 0.9 | 2.6 | 0.00 | 0.00 | 0.00 | 67 | 1012.8 |
| 20260505223515 | 48 | 79 | 1.7 | 3.5 | 0.00 | 0.00 | 0.00 | 66 | 1012.8 |
| 20260505222538 | 48 | 55 | 0.9 | 3.5 | 0.00 | 0.00 | 0.00 | 66 | 1012.9 |
| 20260505221520 | 48 | 134 | 0.9 | 4.3 | 0.00 | 0.00 | 0.00 | 66 | 1013.0 |
| 20260505220519 | 49 | 19 | 0.9 | 2.6 | 0.00 | 0.00 | 0.00 | 65 | 1013.1 |
| 20260505215539 | 49 | 139 | 0.9 | 2.6 | 0.00 | 0.00 | 0.00 | 65 | 1013.1 |
| 20260505214516 | 49 | 52 | 0.9 | 0.9 | 0.00 | 0.00 | 0.00 | 65 | 1013.2 |
| 20260505213541 | 49 | 323 | 0.0 | 3.5 | 0.00 | 0.00 | 0.00 | 64 | 1013.3 |
| 20260505212519 | 49 | 46 | 0.9 | 0.9 | 0.00 | 0.00 | 0.00 | 64 | 1013.4 |
| 20260505211530 | 50 | 108 | 0.9 | 2.6 | 0.00 | 0.00 | 0.00 | 64 | 1013.5 |
| 20260505210516 | 50 | 24 | 0.9 | 2.6 | 0.00 | 0.00 | 0.00 | 64 | 1013.6 |
| 20260505205518 | 50 | 95 | 0.9 | 2.6 | 0.00 | 0.00 | 0.00 | 63 | 1013.8 |
| 20260505204518 | 50 | 118 | 1.7 | 3.5 | 0.00 | 0.00 | 0.00 | 63 | 1013.7 |
| 20260505203539 | 50 | 42 | 1.7 | 3.5 | 0.00 | 0.00 | 0.00 | 63 | 1013.6 |
| 20260505202524 | 50 | 12 | 1.7 | 4.3 | 0.00 | 0.00 | 0.00 | 63 | 1013.5 |
| 20260505201526 | 50 | 16 | 1.7 | 4.3 | 0.00 | 0.00 | 0.00 | 63 | 1013.5 |
| 20260505200525 | 50 | 55 | 1.7 | 3.5 | 0.00 | 0.00 | 0.00 | 62 | 1013.6 |
| 20260505195526 | 51 | 34 | 1.7 | 2.6 | 0.00 | 0.00 | 0.00 | 62 | 1013.6 |
| 20260505194541 | 51 | 339 | 1.7 | 4.3 | 0.00 | 0.00 | 0.00 | 62 | 1013.4 |
| 20260505193521 | 51 | 121 | 1.7 | 3.5 | 0.00 | 0.00 | 0.00 | 61 | 1013.3 |
| 20260505192523 | 51 | 81 | 1.7 | 3.5 | 0.00 | 0.00 | 0.00 | 61 | 1013.2 |
| 20260505191519 | 52 | 101 | 1.7 | 2.6 | 0.00 | 0.00 | 0.00 | 60 | 1013.1 |
| 20260505190521 | 52 | 142 | 2.6 | 4.3 | 0.00 | 0.00 | 0.00 | 59 | 1013.2 |
| 20260505185523 | 53 | 121 | 2.6 | 4.3 | 0.00 | 0.00 | 0.00 | 59 | 1013.3 |
| 20260505184524 | 53 | 44 | 2.6 | 4.3 | 0.00 | 0.00 | 0.00 | 59 | 1013.2 |
| 20260505183524 | 54 | 112 | 2.6 | 5.2 | 0.00 | 0.00 | 0.00 | 58 | 1013.2 |
| 20260505182526 | 54 | 39 | 3.5 | 7.8 | 0.00 | 0.00 | 0.00 | 58 | 1013.3 |
| 20260505181516 | 55 | 85 | 3.5 | 6.1 | 0.00 | 0.00 | 0.00 | 58 | 1013.3 |
| 20260505180540 | 55 | 35 | 4.3 | 8.7 | 0.00 | 0.00 | 0.00 | 57 | 1013.4 |
| 20260505175522 | 56 | 123 | 3.5 | 9.6 | 0.00 | 0.00 | 0.00 | 56 | 1013.5 |
| 20260505174523 | 56 | 126 | 4.3 | 7.0 | 0.00 | 0.00 | 0.00 | 55 | 1013.5 |
| 20260505173522 | 56 | 58 | 4.3 | 8.7 | 0.00 | 0.00 | 0.00 | 55 | 1013.5 |
| 20260505172525 | 57 | 58 | 3.5 | 9.6 | 0.00 | 0.00 | 0.00 | 55 | 1013.4 |
| 20260505171525 | 57 | 55 | 2.6 | 7.8 | 0.00 | 0.00 | 0.00 | 55 | 1013.3 |
| 20260505170524 | 57 | 19 | 3.5 | 7.0 | 0.00 | 0.00 | 0.00 | 54 | 1013.3 |
| 20260505165528 | 58 | 73 | 2.6 | 6.1 | 0.00 | 0.00 | 0.00 | 53 | 1013.3 |
| 20260505164526 | 58 | 79 | 3.5 | 5.2 | 0.00 | 0.00 | 0.00 | 52 | 1013.4 |
| 20260505163544 | 59 | 65 | 3.5 | 8.7 | 0.00 | 0.00 | 0.00 | 51 | 1013.5 |
| 20260505162525 | 59 | 74 | 4.3 | 6.1 | 0.00 | 0.00 | 0.00 | 50 | 1013.5 |
| 20260505161516 | 59 | 99 | 3.5 | 5.2 | 0.00 | 0.00 | 0.00 | 49 | 1013.6 |
| 20260505160544 | 60 | 68 | 3.5 | 8.7 | 0.00 | 0.00 | 0.00 | 49 | 1013.6 |
| 20260505152518 | 61 | 97 | 3.5 | 9.6 | 0.00 | 0.00 | 0.00 | 48 | 1013.6 |
| 20260505151520 | 61 | 105 | 3.5 | 6.1 | 0.00 | 0.00 | 0.00 | 48 | 1013.5 |
| 20260505150524 | 61 | 103 | 2.6 | 7.8 | 0.00 | 0.00 | 0.00 | 48 | 1013.5 |
| 20260505140519 | 61 | 65 | 3.5 | 6.1 | 0.00 | 0.00 | 0.00 | 48 | 1013.6 |
| 20260505124521 | 60 | 86 | 4.3 | 9.6 | 0.00 | 0.00 | 0.00 | 49 | 1013.6 |
| 20260505123524 | 60 | 59 | 4.3 | 6.1 | 0.00 | 0.00 | 0.00 | 50 | 1013.5 |
| 20260505122524 | 60 | 58 | 4.3 | 8.7 | 0.00 | 0.00 | 0.00 | 50 | 1013.6 |
| 20260505121522 | 59 | 79 | 4.3 | 7.8 | 0.00 | 0.00 | 0.00 | 51 | 1013.6 |
| 20260505120524 | 60 | 125 | 2.6 | 7.8 | 0.00 | 0.00 | 0.00 | 50 | 1013.7 |
| 20260505115516 | 60 | 43 | 3.5 | 5.2 | 0.00 | 0.00 | 0.00 | 51 | 1013.8 |
| 20260505114516 | 60 | 79 | 3.5 | 9.6 | 0.00 | 0.00 | 0.00 | 50 | 1013.7 |
| 20260505113518 | 59 | 347 | 3.5 | 7.8 | 0.00 | 0.00 | 0.00 | 51 | 1013.7 |
| 20260505112539 | 59 | 60 | 3.5 | 4.3 | 0.00 | 0.00 | 0.00 | 52 | 1013.7 |
| 20260505111521 | 59 | 72 | 3.5 | 7.0 | 0.00 | 0.00 | 0.00 | 52 | 1013.7 |
| 20260505110524 | 59 | 23 | 2.6 | 7.8 | 0.00 | 0.00 | 0.00 | 53 | 1013.8 |